Precipitable_Water
1.06 1.12 1.21 1.23 1.23 1.12 0.91 0.92 0.99 1.09 1.23 1.34 1.39 1.39 1.42 1.39 1.38 1.33 1.33 1.32 1.25 1.14 1.05 0.95 0.93 0.94 0.93 1.03 1.09 1.10 1.08 1.09 0.98 1.09 1.15 1.14 1.11 1.10 1.09 1.11 1.09 1.06 1.04
1.09 1.13 1.21 1.25 1.23 1.06 0.88 0.89 0.99 1.04 1.14 1.21 1.28 1.35 1.41 1.34 1.41 1.37 1.28 1.29 1.25 1.22 1.18 1.09 0.98 0.95 0.95 1.05 1.11 1.12 1.10 1.11 1.07 1.00 1.08 1.06 1.05 1.04 1.03 1.02 1.02 1.01 0.99
1.11 1.15 1.19 1.22 1.19 0.98 0.86 0.90 0.99 1.04 1.06 1.11 1.19 1.25 1.29 1.32 1.34 1.39 1.34 1.28 1.24 1.19 1.21 1.23 1.16 1.02 1.03 1.12 1.11 1.12 1.10 1.12 1.14 1.09 1.03 1.04 1.00 0.99 0.97 0.96 0.94 0.93 0.91
1.12 1.14 1.18 1.19 1.10 0.99 0.89 0.93 0.99 1.02 1.03 1.08 1.18 1.22 1.27 1.32 1.38 1.37 1.39 1.34 1.31 1.29 1.30 1.32 1.27 1.13 1.12 1.19 1.18 1.12 1.12 1.10 1.12 1.06 1.00 0.96 0.94 0.94 0.91 0.87 0.82 0.81 0.77
1.12 1.15 1.18 1.17 1.06 1.02 0.92 0.94 0.99 1.00 1.02 1.08 1.13 1.18 1.23 1.28 1.34 1.37 1.36 1.35 1.32 1.29 1.29 1.29 1.28 1.23 1.24 1.24 1.18 1.14 1.13 1.08 1.04 1.00 0.95 0.91 0.88 0.85 0.81 0.75 0.70 0.70 0.69
1.13 1.16 1.20 1.08 1.05 1.02 0.94 0.95 0.98 0.98 1.01 1.04 1.04 1.08 1.13 1.20 1.30 1.33 1.32 1.28 1.25 1.21 1.20 1.19 1.19 1.19 1.19 1.16 1.15 1.13 1.12 1.06 1.00 0.95 0.90 0.84 0.78 0.75 0.72 0.67 0.63 0.58 0.54
1.11 1.20 1.19 1.06 1.02 1.03 0.96 0.95 0.95 0.96 0.98 0.97 0.96 0.97 1.01 1.09 1.17 1.24 1.25 1.21 1.18 1.16 1.14 1.13 1.11 1.10 1.11 1.10 1.07 1.06 1.03 1.00 0.96 0.88 0.79 0.74 0.70 0.65 0.61 0.57 0.56 0.53 0.51
1.10 1.19 1.18 1.06 1.00 1.04 0.96 0.93 0.94 0.95 0.94 0.93 0.92 0.91 0.92 0.93 1.05 1.08 1.11 1.14 1.11 1.08 1.08 1.09 1.09 1.05 1.04 1.04 1.00 0.95 0.88 0.83 0.80 0.77 0.72 0.66 0.62 0.60 0.57 0.57 0.56 0.55 0.52
1.10 1.17 1.20 1.05 1.00 1.05 0.92 0.91 0.92 0.90 0.90 0.89 0.90 0.89 0.88 0.86 0.91 0.98 1.01 1.03 1.02 1.01 1.01 1.03 1.03 0.99 0.95 0.94 0.88 0.81 0.77 0.75 0.72 0.68 0.65 0.63 0.61 0.60 0.60 0.57 0.50 0.47 0.42
1.06 1.15 1.22 1.11 1.03 1.01 0.98 0.92 0.91 0.90 0.89 0.89 0.87 0.88 0.89 0.86 0.86 0.89 0.92 0.93 0.90 0.89 0.87 0.87 0.84 0.82 0.79 0.78 0.76 0.74 0.70 0.66 0.63 0.62 0.61 0.61 0.58 0.55 0.52 0.47 0.43 0.39 0.35
1.01 1.13 1.22 1.19 1.03 1.01 1.00 0.97 0.94 0.88 0.88 0.87 0.86 0.85 0.86 0.87 0.86 0.87 0.88 0.86 0.83 0.78 0.75 0.73 0.73 0.73 0.72 0.70 0.68 0.65 0.63 0.65 0.65 0.61 0.58 0.55 0.52 0.48 0.44 0.39 0.34 0.29 0.25
0.98 1.04 1.15 1.15 1.03 0.97 0.97 0.95 0.94 0.91 0.87 0.87 0.87 0.85 0.83 0.84 0.85 0.85 0.85 0.84 0.81 0.78 0.73 0.71 0.69 0.68 0.66 0.62 0.64 0.67 0.66 0.62 0.59 0.55 0.51 0.46 0.41 0.36 0.32 0.29 0.26 0.24 0.23
0.95 0.99 1.04 1.07 1.01 0.95 0.94 0.92 0.89 0.90 0.88 0.84 0.84 0.83 0.81 0.83 0.81 0.80 0.80 0.80 0.79 0.77 0.75 0.73 0.70 0.66 0.66 0.66 0.65 0.62 0.61 0.57 0.53 0.47 0.40 0.34 0.31 0.30 0.28 0.26 0.25 0.23 0.21
0.89 0.91 0.95 0.99 0.96 0.96 0.94 0.93 0.94 0.91 0.90 0.87 0.84 0.80 0.79 0.80 0.81 0.78 0.77 0.75 0.74 0.74 0.73 0.70 0.68 0.67 0.66 0.63 0.58 0.56 0.52 0.47 0.41 0.36 0.31 0.30 0.28 0.27 0.24 0.22 0.20 0.19 0.19
0.83 0.85 0.90 0.92 0.94 0.90 0.92 0.90 0.92 0.91 0.92 0.89 0.86 0.86 0.83 0.79 0.78 0.81 0.79 0.76 0.74 0.72 0.70 0.67 0.64 0.62 0.58 0.53 0.48 0.44 0.39 0.35 0.32 0.30 0.28 0.25 0.22 0.20 0.19 0.19 0.17 0.16 0.15
0.78 0.79 0.84 0.84 0.85 0.86 0.86 0.85 0.87 0.88 0.89 0.86 0.84 0.81 0.82 0.79 0.79 0.76 0.74 0.72 0.72 0.69 0.65 0.62 0.58 0.53 0.48 0.42 0.37 0.33 0.30 0.28 0.26 0.24 0.22 0.21 0.19 0.18 0.18 0.18 0.17 0.16 0.15
0.72 0.74 0.76 0.78 0.78 0.77 0.78 0.78 0.77 0.78 0.80 0.77 0.77 0.74 0.76 0.74 0.72 0.70 0.69 0.69 0.66 0.63 0.58 0.54 0.48 0.44 0.39 0.34 0.31 0.28 0.25 0.24 0.23 0.21 0.20 0.19 0.18 0.18 0.17 0.17 0.16 0.15 0.13
0.64 0.70 0.72 0.71 0.73 0.72 0.74 0.73 0.71 0.70 0.66 0.64 0.67 0.69 0.68 0.66 0.65 0.62 0.62 0.60 0.55 0.51 0.47 0.41 0.36 0.33 0.31 0.27 0.24 0.22 0.21 0.21 0.20 0.19 0.19 0.18 0.17 0.17 0.16 0.15 0.15 0.13 0.12
0.59 0.61 0.64 0.67 0.68 0.68 0.69 0.70 0.69 0.67 0.66 0.62 0.61 0.62 0.61 0.60 0.58 0.57 0.53 0.46 0.38 0.36 0.35 0.31 0.29 0.27 0.24 0.23 0.23 0.22 0.20 0.20 0.19 0.19 0.18 0.17 0.16 0.15 0.14 0.14 0.14 0.13 0.12
0.53 0.54 0.55 0.57 0.58 0.62 0.63 0.60 0.57 0.56 0.54 0.54 0.51 0.52 0.54 0.51 0.44 0.40 0.38 0.36 0.33 0.31 0.28 0.25 0.23 0.22 0.22 0.21 0.21 0.20 0.20 0.19 0.18 0.17 0.17 0.16 0.15 0.15 0.14 0.13 0.13 0.12 0.12
0.50 0.51 0.52 0.52 0.51 0.51 0.51 0.50 0.52 0.52 0.51 0.50 0.48 0.47 0.44 0.39 0.36 0.35 0.33 0.30 0.28 0.26 0.25 0.23 0.22 0.21 0.22 0.22 0.21 0.20 0.19 0.18 0.17 0.16 0.15 0.14 0.14 0.13 0.13 0.13 0.12 0.12 0.12
0.49 0.49 0.48 0.47 0.48 0.47 0.46 0.46 0.46 0.46 0.45 0.43 0.41 0.39 0.38 0.36 0.32 0.30 0.29 0.28 0.26 0.24 0.22 0.23 0.23 0.22 0.21 0.20 0.19 0.18 0.17 0.17 0.16 0.15 0.14 0.13 0.12 0.12 0.12 0.12 0.12 0.12 0.11
0.46 0.45 0.46 0.45 0.45 0.45 0.44 0.43 0.43 0.41 0.39 0.38 0.37 0.36 0.35 0.32 0.30 0.27 0.25 0.23 0.23 0.24 0.25 0.23 0.21 0.20 0.19 0.19 0.19 0.18 0.16 0.15 0.15 0.14 0.12 0.12 0.11 0.11 0.11 0.11 0.11 0.11 0.11
0.45 0.44 0.44 0.43 0.43 0.42 0.42 0.40 0.39 0.37 0.36 0.34 0.31 0.28 0.26 0.25 0.24 0.23 0.22 0.23 0.23 0.21 0.21 0.20 0.19 0.18 0.18 0.17 0.17 0.16 0.15 0.14 0.14 0.13 0.11 0.11 0.11 0.11 0.10 0.10 0.10 0.11 0.11
0.43 0.42 0.41 0.41 0.39 0.37 0.35 0.34 0.33 0.31 0.29 0.27 0.26 0.24 0.22 0.21 0.20 0.22 0.21 0.20 0.19 0.19 0.19 0.18 0.18 0.16 0.15 0.14 0.14 0.14 0.13 0.12 0.11 0.11 0.11 0.11 0.11 0.10 0.10 0.09 0.10 0.10 0.11
0.39 0.40 0.39 0.37 0.34 0.33 0.31 0.30 0.29 0.27 0.24 0.23 0.22 0.21 0.20 0.20 0.20 0.20 0.20 0.19 0.18 0.18 0.17 0.16 0.15 0.14 0.14 0.13 0.13 0.12 0.11 0.11 0.11 0.10 0.10 0.10 0.10 0.10 0.10 0.09 0.09 0.09 0.10
Wind_Speed
28 30 30 30 27 24 22 20 18 16 17 18 19 21 24 25 28 32 38 39 39 38 38 37 36 35 33 31 30 31 30 29 29 28 27 27 29 28 28 27 27 27 26
31 31 31 30 27 24 22 20 18 17 17 19 21 22 24 26 31 35 38 38 42 39 37 37 37 35 34 32 32 31 33 32 31 29 30 29 29 30 27 26 27 27 28
31 33 32 31 28 25 23 20 18 16 16 17 20 21 22 27 31 34 40 40 41 42 39 39 38 37 34 31 31 31 30 31 31 31 27 27 25 25 26 26 27 27 30
31 33 32 31 28 26 23 20 18 16 14 15 17 18 18 22 28 35 37 42 41 43 42 39 38 38 36 32 31 30 29 27 26 25 23 24 24 23 25 27 29 30 31
32 32 33 31 29 26 24 21 18 16 13 13 14 15 15 15 18 26 31 35 37 36 37 35 37 35 32 30 29 27 26 25 24 23 23 23 24 25 26 28 29 31 32
32 33 33 32 30 27 25 22 19 16 13 12 11 11 10 9 10 18 20 25 29 29 32 29 28 28 28 23 21 21 22 22 22 22 23 24 24 25 26 28 29 31 33
29 33 34 32 30 28 26 23 20 17 14 12 10 8 8 8 7 13 16 17 23 23 24 25 23 22 22 21 18 17 16 17 20 21 21 23 24 26 26 28 30 32 34
30 34 35 33 30 29 27 24 21 18 15 13 11 9 9 8 10 11 13 16 17 17 18 20 21 18 17 18 16 16 16 16 18 19 20 21 23 25 27 29 32 34 35
31 35 35 33 31 29 27 26 23 21 17 15 12 11 10 10 11 12 14 16 15 14 14 16 17 16 15 16 16 16 16 16 16 17 18 20 23 26 29 32 33 34 35
26 32 35 34 32 29 29 28 25 23 20 17 14 13 12 12 12 13 15 15 15 14 13 14 14 15 15 15 16 16 16 17 18 20 21 23 25 27 30 31 33 34 35
24 30 34 34 33 30 29 28 27 24 21 19 17 15 14 14 14 14 15 15 15 15 14 14 14 14 14 14 15 17 18 19 21 22 24 26 28 29 30 30 31 31 33
22 25 31 33 32 32 30 29 27 26 23 21 19 17 15 16 16 16 16 16 16 15 15 14 14 14 14 14 16 17 19 20 22 23 25 26 27 28 29 29 30 32 33
17 22 26 31 31 31 31 30 28 26 25 23 21 19 17 17 17 17 17 16 16 16 16 15 15 15 15 15 16 18 20 21 23 24 24 24 25 26 27 29 31 33 34
12 22 26 27 32 31 30 30 28 26 25 23 22 22 21 20 19 19 18 17 16 16 16 16 16 16 16 17 19 20 20 21 21 22 22 24 25 27 28 30 31 33 34
15 13 21 24 27 29 29 28 27 25 25 24 24 23 23 23 22 21 20 19 19 18 17 17 17 17 18 18 19 19 20 20 21 22 22 24 25 26 28 29 31 32 33
14 16 15 18 22 25 25 26 23 24 21 23 21 20 21 21 20 19 19 17 17 17 16 17 18 18 18 17 17 18 19 20 21 22 23 23 25 26 27 29 31 32 34
12 13 14 17 18 20 22 23 26 22 18 19 18 19 20 20 18 18 18 17 17 16 16 16 16 17 17 17 18 19 19 20 20 21 22 23 24 26 27 29 32 33 34
13 13 15 17 17 17 18 20 21 21 20 18 16 17 18 18 16 15 14 15 15 15 16 16 17 17 17 18 18 18 19 19 20 21 22 23 25 27 29 30 32 34 35
12 14 15 15 16 18 17 18 18 18 16 18 16 16 16 16 15 15 15 15 15 15 15 15 16 16 16 17 17 18 18 19 20 21 23 25 27 28 29 31 33 34 35
10 11 14 15 16 17 17 17 16 16 16 16 16 16 16 16 15 16 15 15 15 15 15 15 16 16 16 17 17 17 18 19 21 23 24 26 27 29 30 32 33 34 35
10 10 11 13 15 16 17 17 16 16 15 15 15 15 16 15 15 15 15 15 15 15 15 15 15 15 16 16 17 18 19 21 22 24 25 27 29 30 31 32 33 33 33
9 10 10 12 13 13 14 14 14 14 14 14 14 14 14 14 14 14 14 14 14 14 14 14 15 15 16 17 18 19 21 22 24 25 27 28 29 30 31 31 32 32 33
8 9 10 11 11 12 13 13 13 13 13 14 13 13 13 13 13 13 13 13 13 13 14 14 15 16 17 18 20 21 23 24 26 27 28 29 30 30 31 31 32 33 33
7 9 9 10 10 11 11 12 12 13 13 13 13 13 13 13 13 13 13 13 13 14 14 15 16 17 19 20 22 24 25 26 27 28 29 30 30 31 32 32 32 32 32
6 8 9 9 10 11 11 12 12 12 13 13 13 13 13 13 13 13 13 14 14 15 16 17 19 20 21 23 24 25 27 28 29 30 30 31 31 32 32 32 32 32 32
8 8 9 9 10 10 10 11 11 12 12 13 13 13 13 13 14 14 15 15 16 17 18 19 20 21 22 24 26 27 28 29 30 31 31 31 32 32 32 32 32 32 31
Wind_Direction
236 230 228 228 228 232 235 239 242 241 234 229 226 226 225 220 215 211 212 216 216 218 220 222 224 226 228 234 238 242 244 249 255 256 258 261 262 267 272 270 274 274 280
235 229 229 225 225 228 231 234 237 238 237 235 234 232 232 228 224 220 219 219 218 218 221 224 225 228 230 237 242 248 246 251 251 256 259 265 264 267 265 269 271 273 278
232 226 224 220 222 224 226 229 232 234 239 241 236 233 237 237 232 227 223 221 221 222 226 227 229 228 231 240 247 246 249 250 252 257 260 261 262 260 264 270 272 277 281
227 221 220 218 219 220 221 223 227 230 237 239 233 233 242 246 238 231 224 221 223 227 230 230 231 230 236 245 243 245 247 247 251 253 253 257 261 263 268 273 277 280 283
221 219 216 215 216 217 217 218 221 226 233 232 230 234 248 245 234 221 219 218 222 224 224 228 230 235 237 240 238 240 243 246 246 249 252 258 264 268 273 277 279 281 284
217 216 212 212 213 213 213 214 217 220 223 222 224 228 234 235 211 201 201 208 212 218 221 221 222 223 223 228 230 236 239 239 243 251 257 263 267 270 276 279 282 284 287
220 212 210 210 211 212 211 212 213 214 214 215 214 214 211 208 195 187 194 202 205 207 206 208 206 206 212 221 226 229 237 245 251 254 258 265 269 274 278 282 286 287 289
220 212 209 210 210 210 209 210 210 210 209 209 207 202 192 191 182 176 174 174 175 180 190 198 196 199 214 220 227 233 241 250 255 261 265 269 273 278 282 285 289 290 291
220 211 209 210 210 209 207 208 208 208 208 207 206 201 193 189 183 179 176 177 177 181 182 189 201 209 217 220 229 235 245 254 261 265 269 275 280 284 286 289 291 292 294
219 215 212 211 211 210 207 207 208 208 208 208 206 205 200 196 190 184 183 185 186 191 196 200 209 217 224 230 236 240 248 255 260 269 276 282 284 290 292 293 294 295 296
222 219 210 208 208 210 207 207 206 206 207 208 207 209 207 206 202 198 198 201 202 204 209 214 221 223 227 236 243 249 257 261 267 275 279 282 287 290 293 295 297 299 300
223 212 204 204 207 206 206 206 206 207 208 208 208 209 212 211 209 209 207 207 211 214 217 221 225 227 236 245 253 258 263 268 273 278 282 286 288 291 294 296 299 301 302
211 203 207 207 206 206 205 205 207 208 211 211 211 212 213 214 213 209 210 213 216 220 224 226 228 235 245 255 260 265 269 273 277 280 283 285 290 293 295 298 301 303 304
208 212 208 209 203 202 203 205 206 210 211 214 217 218 217 216 215 216 217 217 216 219 224 235 240 246 252 261 268 271 273 277 280 282 284 286 292 295 299 302 305 307 308
212 196 198 197 198 204 204 206 206 211 215 218 220 219 219 220 221 217 219 225 226 227 232 239 247 251 259 266 268 270 274 279 282 284 288 291 296 299 303 306 308 310 311
208 205 193 193 197 194 193 197 202 203 216 211 207 211 214 207 205 210 216 216 218 227 238 245 252 256 260 263 269 271 277 280 284 289 292 296 300 303 305 308 310 312 313
194 194 191 193 191 196 196 198 201 199 195 194 200 203 197 200 205 211 220 223 226 237 247 250 253 256 257 265 270 275 279 283 286 290 295 299 301 304 306 309 312 314 314
197 190 184 177 180 182 187 188 186 186 190 193 192 193 193 196 199 207 210 217 237 244 244 249 253 257 261 266 271 275 280 285 289 293 297 299 302 305 308 310 313 315 315
199 199 192 191 190 190 186 189 184 187 191 193 194 191 199 202 212 223 233 240 242 243 246 251 255 259 263 268 273 278 282 286 290 294 297 300 304 306 308 310 312 315 316
193 191 194 197 195 194 189 191 197 200 203 205 207 210 218 225 229 232 237 240 243 245 248 253 257 262 267 270 273 278 283 288 292 296 299 302 304 306 308 310 312 314 316
190 190 192 197 200 200 201 202 202 204 210 215 221 224 224 225 227 231 235 239 242 247 252 256 260 264 268 272 276 282 286 290 294 297 300 303 305 307 308 309 312 314 316
193 195 193 192 192 194 197 201 205 207 208 210 215 220 220 225 228 231 235 240 245 250 254 257 263 267 271 277 281 285 289 292 296 298 301 303 305 307 308 310 311 313 314
170 175 179 182 186 190 195 200 204 206 209 211 215 217 221 225 229 234 239 244 248 252 257 262 267 273 278 282 286 289 292 294 297 299 302 303 305 306 308 309 310 312 314
172 175 178 183 190 195 200 203 207 209 212 215 219 222 224 230 234 237 240 245 252 257 263 269 274 278 282 286 289 292 294 296 298 300 301 303 304 305 307 308 309 311 313
191 193 197 203 207 207 208 211 212 214 217 219 221 224 226 229 234 242 247 252 259 265 270 275 279 283 286 288 291 293 295 297 298 300 301 302 303 304 305 307 308 309 310
216 212 209 208 208 210 210 211 212 214 217 220 223 226 230 238 245 251 257 262 267 272 275 279 283 286 289 291 293 295 297 298 299 300 301 301 302 303 304 305 306 307 308